Location: Chiroubles
(46.1812°N, 4.6660°E)
Time: 11:17:20
(UTC+00:00)

SR - Pass Details

Date: 26 November 2020
Orbit: 575 x 880 km, 66.7° (Epoch: 20 January)

Event Time Altitude Azimuth Distance (km) Brightness Sun altitude
Rises 18:37:34 0° 206° (SSW) 2,790 ? -26.8°
Reaches altitude 10° 18:39:44 10° 205° (SSW) 1,913 ? -27.2°
Enters shadow 18:41:41 27° 200° (SSW) 1,170 ? -27.5°
